DW4153 Weather Reports


time (UTC)temp
C
wind
direction
speed
KPH
gust
KPH
rain 1hr
cm
rain 24hr
cm
rain mn
cm
humidity
%
barometer
mb
20260506102037 11 49 0.0 6.4 0.00 0.00 0.00 70 1007.4
20260506092037 10 77 0.0 11.3 0.00 0.00 0.00 69 1007.1
20260506085036 10 23 0.0 1.6 0.00 0.10 0.00 70 1007.1
20260506072026 9 25 0.0 4.8 0.00 0.30 0.00 69 1007.0
20260506062043 9 27 1.6 8.0 0.00 0.99 0.00 69 1006.9
20260506042039 8 124 0.0 4.8 0.00 2.39 0.00 71 1007.0
20260506035038 8 323 0.0 8.0 0.00 3.00 0.00 71 1007.1
20260506032034 7 68 0.0 6.4 0.00 3.00 0.00 72 1007.0
20260506025032 7 37 0.0 4.8 0.00 3.00 0.00 72 1007.4
20260506022026 7 354 0.0 1.6 0.00 3.00 0.00 72 1007.6
20260506005039 7 56 0.0 1.6 0.00 3.00 0.00 72 1008.0
20260506002036 7 34 0.0 0.0 0.00 3.00 0.00 72 1008.4
20260505235035 8 160 0.0 0.0 0.00 3.00 0.00 72 1008.5
20260505232034 8 144 0.0 0.0 0.00 3.00 0.00 71 1008.6
20260505225035 8 71 0.0 1.6 0.00 3.00 0.00 69 1008.6
20260505222034 8 47 0.0 3.2 0.00 3.00 0.00 69 1008.9
20260505215027 8 64 0.0 3.2 0.00 3.00 0.61 71 1009.0
20260505212025 8 46 0.0 1.6 0.00 3.00 0.61 71 1009.1
20260505205024 8 60 0.0 3.2 0.00 3.00 0.61 71 1009.1
20260505202045 8 14 0.0 0.0 0.00 3.00 0.61 71 1008.9
20260505195047 8 56 0.0 0.0 0.00 3.00 0.61 71 1008.7
20260505192035 9 63 0.0 0.0 0.00 3.00 0.61 73 1008.8
20260505185029 10 69 0.0 1.6 0.00 3.00 0.61 72 1008.8
20260505182027 12 53 0.0 3.2 0.00 3.00 0.61 68 1008.8
20260505175035 12 357 0.0 4.8 0.00 3.00 0.61 66 1009.0
20260505165127 12 246 0.0 0.0 0.00 3.00 0.61 69 1009.0
20260505162037 12 268 0.0 3.2 0.00 3.00 0.61 68 1009.1
20260505152032 13 288 0.0 6.4 0.00 3.00 0.61 66 1009.4
20260505122035 12 259 0.0 4.8 0.00 3.00 0.61 69 1009.9
20260505115040 12 60 0.0 4.8 0.00 3.00 0.61 59 1010.0
20260505112038 11 60 1.6 8.0 0.00 3.00 0.61 46 1010.2